CZ-6A DEB, 54281

Orbit data source: Space-Track

CZ-6A DEB, 54281 is space debris in SSO originally from a launch on Fri, 11 Nov 2022 UTC launched from the Taiyaun Space Center, China (TSC). Debris objects in space refer to the collection of defunct objects orbiting the Earth. Examples of debris include non-operational satellites, rocket bodies, and fragments generated from explosions, collisions, or faulty payload assembly.

Loading next visibility...
Identifier
54281, 2022-151Y
Orbit
SSO
Country
Flag of CNCN / PRC
Related business
Manufacturer
SAST
Mission
Spacecraft
Bus & Motor
Unknown
Mass
Unknown
Launch date (UTC)
2022-11-11 (4 years ago)
Launch vehicle
Unknown
Launch site
Taiyaun Space Center, China (TSC)
Object type
Payload
Rocket body
Debris
Shape & HBR
Unknown shape, 0.2 m
Radar Cross Section
Medium (>0.1 m² and <1 m²)

Expand to show TLE details & history
Last TLE update: 2 days ago

TLE from 2 days ago
0 CZ-6A DEB
1 54281U 22151Y   26171.01551743  .00000240  00000-0  93553-4 0  9999
2 54281  98.5874 194.7853 0102259   9.4160 350.8912 14.35573055188136
Epoch: 2026-06-20T00:22Z
TLE epoch observation values (Epoch: 2026-06-20T00:22:20.705Z)
Latitude
0.00001°
Longitude
-79.03718°
Altitude
703.901 km
Speed
7.542 km/s
True Right ascension
12h 59m 08s
True Declination
0° 00' 00"
Sunlit
Object was in daylight at epoch
Visualization orbit readout
Latitude
Unknown
Longitude
Unknown
Altitude
Unknown
Speed
Unknown
Apparent Right ascension
Unknown
Apparent Declination
Unknown
Sunlit
N/A
Visualization observer readout
Local Sidereal Time
22:00:17
Azimuth
Unknown
Elevation
Unknown
Doppler factor
Unknown
Orbital elements
Apogee altitude
843.393 km
Perigee altitude
697.195 km
Semi-major axis
7,148.431 km
Eccentricity
0.01023
Inclination
98.5874°
RAAN
194.7853°
Arg. of periapsis
9.416°
True anomaly
350.70332°
Mean anomaly
350.8912°
Eccentric anomaly
350.7975°
Mean motion
3.5911 °/min
Orbital period
100.25 mins
BSTAR
0.000093553
Loading maneuver chart data...
Computing Atmospheric mass density...
Loading historical data...
Loading historical data...
Loading historical data...
Loading historical data...
Loading historical data...
Loading historical data...
Loading historical data...

Documentation

Showing up to 5 results
|